User: anonymous   Login
Location: Unspecified
(0.0000°N, 0.0000°E)
Time: 10:18:15
(UTC+00:00)
Language:

GONETS M 11 (M21) - Orbit

View from above orbital plane
View from above orbital plane
View from above satellite
View from above satellite

Ground track
Ground track

The orbit data is extracted from the following two-line orbital elements,

1 40552U 15020A   17080.79933928 +.00000010 +00000-0 +00000-0 0  9991
2 40552 082.4901 333.4477 0015940 158.1417 202.0352 12.42898150089583
Epoch (UTC): 21 March 2017 19:11:02
Eccentricity: 0.0015940
inclination: 82.4901°
perigee height: 1482 km
apogee height: 1507 km
right ascension of ascending node: 333.4477°
argument of perigee: 158.1417°
revolutions per day: 12.42898150
mean anomaly at epoch: 202.0352°
orbit number at epoch: 8958

The dashed part of the orbit path shows where the satellite is in the earth's shadow,  

DLR